Location: Brunnen
(48.6541°N, 10.9920°E)
Time: 07:55:32
(UTC+00:00)

EO 1 Del DPAF - Pass Details

Date: 01 June 2020
Orbit: 513 x 518 km, 98.0° (Epoch: 07 July)

Event Time Altitude Azimuth Distance (km) Brightness Sun altitude
Rises 21:37:34 0° 19° (NNE) 2,654 7.6 -15.9°
Reaches altitude 10° 21:39:46 10° 27° (NNE) 1,760 6.4 -16.1°
Maximum altitude 21:43:23 41° 99° (E) 757 3.8 -16.3°
Enters shadow 21:44:24 33° 139° (SE) 878 3.8 -16.4°
